{"data":{"norad_id":69652,"intl_designator":"2026-143D","name":"STARLINK-37819","alt_names":[],"object_type":"PAYLOAD","status":"ACTIVE","operator":null,"country":"US","launch_date":"2026-06-21","launch_site_code":"AFWTR","launch_vehicle":null,"mission":null,"orbit_class":"UNKNOWN","rcs_meters":null,"size_class":null,"mass_kg":null,"dimensions":null,"purposes":["comms"],"wikipedia_slug":null,"has_3d_model":false,"image_url":null,"decayed_at":null,"tle_current":{"epoch":"2026-09-19T08:30:11.759328Z","epoch_age_seconds":120616,"freshness":"FRESH","line1":"1 69652U 26143D   26262.35430277  .00010915  00000+0  33985-3 0  9999","line2":"2 69652  97.2831 305.5078 0001374 100.8450 259.2948 15.33451704 15032","mean_motion":15.33451704,"eccentricity":0.0001374,"inclination_deg":97.2831,"raan_deg":305.5078,"arg_perigee_deg":100.845,"mean_anomaly_deg":259.2948,"bstar":0.00033985,"rev_number":1503,"period_min":93.90579411427,"perigee_km":464.58290924812,"apogee_km":466.46354707882,"semimajor_km":6843.6602281635,"source":"CELESTRAK","updated_at":"2026-09-20T09:00:44.247304Z"}}}